Flag for Germany Weather past 2 weeks in Mainz, Rhineland-Palatinate, Germany

Now
84 °F

Sunny.


Feels Like: 84 °F
Forecast: 67 / 84 °F
Wind: 10 mph from Northeast

Location: Wiesbaden Airport

Current Time: Jul 22, 2014 at 5:02:03 PM

Latest Report: Jul 22, 2014 at 3:58 PM


Visibility: N/A

Pressure: 29.96 "Hg

Humidity: 45%

Dew point: 61 °F

Location of MainzLocation

Historic Weather in Mainz — Graph

°F

Mainz temperature yesterday

Maximum temperature yesterday: 75 °F (at 5:58 PM)
Minimum temperature yesterday: 66 °F (at 2:58 AM)
Average temperature yesterday: 69 °F

Past Weeks' High & Low Weather Summary

 TemperatureHumidityPressure
High92 °F (Jul 19, 4:58 PM)100% (Jul 8, 2:58 AM)30.19 "Hg (Jul 8, 2:58 AM)
Low53 °F (Jul 9, 5:58 AM)25% (Jul 18, 6:58 PM)29.72 "Hg (Jul 9, 5:58 PM)
Average70 °F72%29.93 "Hg
* Reported Jul 7 7:58 PM — Jul 22 3:58 PM, Mainz, Weather by CustomWeather, © 2014

Note: Actual official high and low records may vary slightly from our data, if they occured in-between our weather recording intervals... More about our weather records

Advertising

Mainz weather history for previous 24 hours

 ConditionsComfort  
Time TempWeatherWind HumidityBarometerVisibility
3:58 PM
Jul 22
84 °FSunny.10 mph45%29.96 "HgN/A
2:58 PM82 °FPassing clouds.10 mph48%29.97 "HgN/A
1:58 PM82 °FPassing clouds.7 mph48%29.96 "HgN/A
12:58 PM81 °FPassing clouds.7 mph51%29.97 "HgN/A
11:58 AM78 °FSunny.6 mph61%29.97 "HgN/A
10:58 AM75 °FSunny.9 mph69%29.96 "HgN/A
9:58 AM73 °FSunny.8 mph74%29.95 "HgN/A
8:58 AM72 °FSunny.9 mph79%29.94 "HgN/A
7:58 AM69 °FSunny.8 mph87%29.92 "HgN/A
6:58 AM68 °FPassing clouds.5 mph88%29.92 "HgN/A
5:58 AM68 °FPassing clouds.12 mph88%29.91 "HgN/A
4:58 AM69 °FPassing clouds.9 mph90%29.90 "HgN/A
3:58 AM68 °FPassing clouds.13 mph88%29.89 "HgN/A
2:58 AM68 °FPassing clouds.8 mph88%29.90 "HgN/A
1:58 AM68 °FPassing clouds.3 mph88%29.90 "HgN/A
12:58 AM68 °FOvercast.7 mph88%29.91 "HgN/A
11:58 PM
Jul 21
67 °FPassing clouds.3 mph88%29.91 "HgN/A
10:58 PM68 °FPassing clouds.5 mph88%29.90 "HgN/A
9:58 PM69 °FSunny.7 mph82%29.90 "HgN/A
8:58 PM71 °FOvercast.8 mph77%29.89 "HgN/A
7:58 PM73 °FPartly sunny.8 mph74%29.88 "HgN/A
6:58 PM75 °FBroken clouds.9 mph74%29.87 "HgN/A
5:58 PM75 °FScattered clouds.10 mph74%29.87 "HgN/A
Weather by CustomWeather, © 2014

See weather overviewHow to use our weather pages